Weather History for Fort Eustis, VA

Change the Weather History Date:

Sunday, December 9, 2012

  Actual Average Record
Temperature  
Mean Temperature 55 °F -  
Max Temperature 64 °F 53 °F 64 °F (2012)
Min Temperature 46 °F 38 °F 23 °F (2010)
Degree Days  
Heating Degree Days 10    
Growing Degree Days 5 (Base 50)    
Moisture  
Dew Point 50 °F    
Average Humidity 94    
Maximum Humidity 100    
Minimum Humidity 80    
Precipitation  
Precipitation 0.07 in - - ()
Sea Level Pressure  
Sea Level Pressure 30.08 in    
Wind  
Wind Speed 1 mph (SSE)    
Max Wind Speed 10 mph    
Max Gust Speed -    
Visibility 4 miles    
Events Fog , Rain    
Averages and records for this station are not official NWS values.
T = Trace of Precipitation, MM = Missing Value Source: NWS Daily Summary

Daily Weather History Graph

Daily Weather History Graph

Search for Another Location

Airport:

Trip Planner

Search our weather history database for the weather conditions in past years. The results will help you decide how hot, cold, wet, or windy it might be!

Date:

Astronomy

Dec. 09, 2012 Rise Set
Actual Time 7:08 AM EST 4:49 PM EST
Civil Twilight 6:39 AM EST 5:18 PM EST
Nautical Twilight 6:07 AM EST 5:50 PM EST
Astronomical Twilight 5:35 AM EST 6:22 PM EST
Moon 2:43 AM EST (12/9) 1:51 PM EST (12/9)
Length of Visible Light 10h 38m
Length of Day
9h 40m
Waning Crescent, 19% of the Moon is Illuminated
Dec 9
Waning Crescent
Dec 13
New
Dec 20
First Quarter
Dec 28
Full
Jan 4
Last Quarter

Hourly Weather History & Observations

Time (EST) Temp. Dew Point Humidity Pressure Visibility Wind Dir Wind Speed Gust Speed Precip Events Conditions
12:55 AM 54.3 °F 51.8 °F 91% 30.04 in 10.0 mi SW 5.8 mph - N/A   Clear
1:55 AM 54.1 °F 51.6 °F 91% 30.05 in 10.0 mi SW 3.5 mph - N/A   Clear
2:55 AM 51.3 °F 50.7 °F 98% 30.06 in 10.0 mi Calm Calm - N/A   Clear
3:11 AM 50.0 °F 48.2 °F 94% 30.06 in 2.5 mi Calm Calm - N/A   Clear
3:17 AM 50.0 °F 48.2 °F 94% 30.06 in 1.8 mi Calm Calm - N/A   Clear
3:19 AM 50.0 °F 48.2 °F 94% 30.06 in 2.0 mi Calm Calm - N/A   Clear
3:22 AM 50.0 °F 48.2 °F 94% 30.06 in 3.0 mi Calm Calm - N/A   Clear
3:31 AM 50.0 °F 50.0 °F 100% 30.06 in 2.5 mi Calm Calm - N/A   Clear
3:33 AM 50.0 °F 48.2 °F 94% 30.06 in 1.5 mi Calm Calm - N/A   Clear
3:38 AM 48.2 °F 48.2 °F 100% 30.06 in 0.8 mi Calm Calm - N/A   Clear
3:39 AM 48.2 °F 48.2 °F 100% 30.06 in 0.5 mi Calm Calm - N/A Fog Fog
3:46 AM 48.2 °F 46.4 °F 93% 30.06 in 0.2 mi Calm Calm - N/A Fog Fog
3:49 AM 48.2 °F 48.2 °F 100% 30.06 in 0.5 mi Calm Calm - N/A Fog Fog
3:55 AM 48.6 °F 48.0 °F 98% 30.06 in 0.5 mi Calm Calm - N/A Fog Fog
3:57 AM 48.2 °F 48.2 °F 100% 30.06 in 0.8 mi Calm Calm - N/A   Clear
4:02 AM 48.2 °F 48.2 °F 100% 30.06 in 1.0 mi Calm Calm - N/A   Clear
4:07 AM 46.4 °F 46.4 °F 100% 30.06 in 0.8 mi Calm Calm - N/A   Clear
4:11 AM 48.2 °F 46.4 °F 93% 30.06 in 1.0 mi Calm Calm - N/A   Clear
4:16 AM 50.0 °F 48.2 °F 94% 30.06 in 2.0 mi Calm Calm - N/A   Clear
4:18 AM 50.0 °F 48.2 °F 94% 30.06 in 4.0 mi Calm Calm - N/A   Clear
4:33 AM 48.2 °F 46.4 °F 93% 30.07 in 2.5 mi Calm Calm - N/A   Clear
4:35 AM 48.2 °F 46.4 °F 93% 30.07 in 1.8 mi Calm Calm - N/A   Clear
4:45 AM 48.2 °F 48.2 °F 100% 30.07 in 2.0 mi Calm Calm - N/A   Clear
4:47 AM 48.2 °F 48.2 °F 100% 30.07 in 4.0 mi Calm Calm - N/A   Partly Cloudy
4:55 AM 49.3 °F 48.7 °F 98% 30.07 in 8.0 mi Calm Calm - N/A   Scattered Clouds
5:55 AM 49.3 °F 48.4 °F 97% 30.09 in 8.0 mi Calm Calm - N/A   Partly Cloudy
6:08 AM 48.2 °F 46.4 °F 93% 30.10 in 2.5 mi Calm Calm - N/A   Partly Cloudy
6:13 AM 48.2 °F 46.4 °F 93% 30.10 in 3.0 mi Calm Calm - N/A   Partly Cloudy
6:16 AM 48.2 °F 46.4 °F 93% 30.10 in 2.5 mi Calm Calm - N/A   Clear
6:18 AM 48.2 °F 46.4 °F 93% 30.10 in 3.0 mi Calm Calm - N/A   Clear
6:38 AM 46.4 °F 46.4 °F 100% 30.10 in 2.5 mi Calm Calm - N/A   Clear
6:39 AM 46.4 °F 46.4 °F 100% 30.10 in 1.8 mi Calm Calm - N/A   Clear
6:46 AM 46.4 °F 46.4 °F 100% 30.10 in 0.8 mi Calm Calm - N/A   Clear
6:49 AM 48.2 °F 46.4 °F 93% 30.10 in 1.0 mi Calm Calm - N/A   Clear
6:53 AM 48.2 °F 46.4 °F 93% 30.10 in 0.8 mi Calm Calm - N/A   Clear
6:54 AM 48.2 °F 46.4 °F 93% 30.10 in 0.5 mi Calm Calm - N/A Fog Fog
6:55 AM 47.3 °F 46.6 °F 97% 30.10 in 0.2 mi Calm Calm - N/A Fog Fog
6:58 AM 46.4 °F 46.4 °F 100% 30.10 in 0.2 mi Calm Calm - N/A Fog Fog
7:16 AM 46.4 °F 46.4 °F 100% 30.12 in 0.2 mi Calm Calm - N/A Fog Fog
7:21 AM 46.4 °F 46.4 °F 100% 30.10 in 0.5 mi Calm Calm - N/A Fog Fog
7:24 AM 48.2 °F 46.4 °F 93% 30.11 in 0.8 mi Calm Calm - N/A   Scattered Clouds
7:26 AM 48.2 °F 46.4 °F 93% 30.11 in 1.0 mi Calm Calm - N/A   Scattered Clouds
7:29 AM 48.2 °F 46.4 °F 93% 30.11 in 2.5 mi Calm Calm - N/A   Mostly Cloudy
7:30 AM 48.2 °F 46.4 °F 93% 30.11 in 3.0 mi Calm Calm - N/A   Mostly Cloudy
7:36 AM 48.2 °F 46.4 °F 93% 30.11 in 2.5 mi Calm Calm - N/A   Mostly Cloudy
7:45 AM 48.2 °F 46.4 °F 93% 30.11 in 3.0 mi Calm Calm - N/A   Scattered Clouds
7:49 AM 48.2 °F 48.2 °F 100% 30.12 in 4.0 mi Calm Calm - N/A Rain Light Rain
7:55 AM 48.9 °F 47.8 °F 96% 30.13 in 5.0 mi Calm Calm - 0.00 in Rain Light Rain
7:58 AM 48.2 °F 48.2 °F 100% 30.12 in 4.0 mi Calm Calm - N/A   Scattered Clouds
8:27 AM 50.0 °F 48.2 °F 94% 30.13 in 4.0 mi Calm Calm - N/A Rain Light Rain
8:34 AM 51.8 °F 50.0 °F 94% 30.13 in 2.5 mi SSE 3.5 mph - N/A Rain Light Rain
8:53 AM 51.8 °F 50.0 °F 94% 30.14 in 3.0 mi South 3.5 mph - N/A Rain Light Rain
8:55 AM 52.9 °F 50.9 °F 93% 30.14 in 4.0 mi South 3.5 mph - 0.05 in Rain Light Rain
9:15 AM 55.4 °F 51.8 °F 88% 30.14 in 6.0 mi SSE 3.5 mph - N/A   Mostly Cloudy
9:55 AM 57.2 °F 54.7 °F 91% 30.14 in 8.0 mi Calm Calm - 0.01 in   Mostly Cloudy
9:59 AM 57.2 °F 55.4 °F 94% 30.14 in 9.0 mi South 5.8 mph - N/A Rain Light Rain
10:23 AM 55.4 °F 53.6 °F 94% 30.14 in 6.0 mi South 4.6 mph - N/A   Mostly Cloudy
10:55 AM 57.0 °F 55.6 °F 95% 30.13 in 7.0 mi Calm Calm - 0.01 in   Mostly Cloudy
11:55 AM 60.3 °F 57.2 °F 90% 30.10 in 10.0 mi Calm Calm - N/A   Scattered Clouds
12:55 PM 62.1 °F 57.9 °F 86% 30.09 in 10.0 mi Calm Calm - N/A   Scattered Clouds
1:55 PM 63.9 °F 58.1 °F 81% 30.07 in 10.0 mi Calm Calm - N/A   Mostly Cloudy
2:55 PM 64.2 °F 58.1 °F 80% 30.08 in 10.0 mi Calm Calm - N/A   Mostly Cloudy
3:55 PM 64.0 °F 57.9 °F 80% 30.08 in 10.0 mi Calm Calm - N/A   Mostly Cloudy
4:55 PM 60.1 °F 56.3 °F 87% 30.09 in 10.0 mi ENE 4.6 mph - N/A   Overcast
5:55 PM 57.4 °F 54.9 °F 91% 30.08 in 10.0 mi East 3.5 mph - N/A   Mostly Cloudy
6:55 PM 55.9 °F 54.0 °F 93% 30.08 in 9.0 mi Calm Calm - N/A   Scattered Clouds
7:55 PM 54.3 °F 53.2 °F 96% 30.06 in 6.0 mi Calm Calm - N/A   Clear
8:00 PM 53.6 °F 53.6 °F 100% 30.06 in 2.0 mi Calm Calm - N/A   Clear
8:01 PM 53.6 °F 51.8 °F 94% 30.06 in 1.5 mi Calm Calm - N/A   Clear
8:19 PM 53.6 °F 51.8 °F 94% 30.06 in 2.5 mi Calm Calm - N/A   Clear
8:20 PM 53.6 °F 51.8 °F 94% 30.06 in 3.0 mi Calm Calm - N/A   Clear
8:33 PM 51.8 °F 50.0 °F 94% 30.05 in 2.5 mi SE 3.5 mph - N/A   Clear
8:40 PM 51.8 °F 51.8 °F 100% 30.04 in 3.0 mi SE 5.8 mph - N/A   Clear
8:55 PM 54.0 °F 53.4 °F 98% 30.04 in 9.0 mi SE 8.1 mph - N/A   Clear
9:55 PM 60.1 °F 55.0 °F 83% 30.02 in 10.0 mi South 10.4 mph - N/A   Scattered Clouds
10:55 PM 59.9 °F 55.6 °F 86% 30.02 in 10.0 mi South 8.1 mph - N/A   Clear
11:55 PM 59.0 °F 56.1 °F 90% 30.00 in 10.0 mi SSE 4.6 mph - N/A   Clear